www.pogodaiklimat.ru

Погода и климат >> Архив погоды >> Россия >> Красноярский край >> Снежногорск


ПОГОДА в Снежногорске

  • Прогноз погоды в Снежногорске
  • Монитор погоды в Снежногорске

АРХИВ ПОГОДЫ в Снежногорске

Время (UTC), дата Ветер
(напр.,м/с)
 
Видим.   Явления Облачность Т
(С)
Тd
(С)
f
(%)
Тe
(С)
Тes
(С)
Комфортность P
(гПа)
Po
(гПа)
Тmin
(С)
Tmax
(С)
R
(мм)
R24
(мм)
S
(см)
09 9.07 СЗ 3
{10}
20 км 4/1 600 м
[Cu hum Ac lent]
+16.9 +8.2 56 +17 +21 996.0 985.1
12 9.07 СЗ 5
{10}
20 км 3/3 600 м
[Cu hum]
+16.1 +7.0 55 +15 +16 997.9 987.0 +17.1 0.3
15 9.07 СЗ 3
{10}
20 км 9/4 600 м
[Sc Ac trans]
+12.8 +5.0 59 +12 +12 999.9 988.8
18 9.07 СЗ 1 20 км 10/10 600 м
[Sc]
+10.2 +4.3 67 +10 +10 1001.0 989.8
21 9.07 СЗ 2 20 км 10/10 600 м
[Sc]
+9.9 +7.0 82 +8 +8 1002.0 990.7
00 10.07 СЗ 2 20 км 10/10 600 м
[Sc]
+10.0 +8.0 87 +8 +8 1003.5 992.3 +9.9
03 10.07 СЗ 1 20 км 10/10 600 м
[Sc]
+10.0 +6.8 80 +10 +10 1004.4 993.1
06 10.07 СЗ 1 20 км 10/10 600 м
[Sc]
+12.8 +6.8 67 +13 +13 1005.6 994.4
09 10.07 СЗ 2 20 км 10/10 600 м
[Sc]
+13.9 +5.9 58 +14 +14 1006.9 995.7
12 10.07 СЗ 1 20 км 9/4 600 м
[Sc Ac trans]
+14.2 +4.0 50 +15 +16 1008.3 997.1 +14.2
15 10.07 СЗ 1 20 км 4/0
[Ci fib]
+12.0 +4.0 58 +12 +13 1009.3 998.0
18 10.07 СЗ 1 20 км ясно +9.7 +4.8 71 +9 +9 1010.2 998.9
21 10.07 СЗ 2 20 км 3/0
[Ci fib]
+9.0 +5.5 79 +7 +8 1011.4 1000.0
00 11.07 СЗ 1 20 км ясно +12.8 +6.1 64 +13 +16 1011.7 1000.5 +8.6
03 11.07 СЗ 2 20 км 1/0
[Ci fib]
+15.4 +4.8 49 +15 +23 1012.4 1001.2
06 11.07 СВ 2 20 км 1/0
[Ci fib]
+17.6 +4.8 43 +18 +28 1012.5 1001.4
09 11.07 СЗ 2 20 км 6/0
[Ci sp]
+18.6 +4.6 40 +19 +26 1012.9 1001.9
12 11.07 Ю 1 20 км 3/0
[Ci sp]
+17.0 +4.3 43 +18 +21 1013.0 1001.9 +19.0
15 11.07 штиль 0 20 км 9/9 600 м
[Sc]
+15.0 +4.8 50 +15 +15 1013.2 1002.0
18 11.07 штиль 0 20 км 10/10 600 м
[Sc]
+14.1 +4.6 53 +14 +14 1013.3 1002.1
21 11.07 В 1 10 км слаб. ливневой дождь 10/10 600 м
[Cb cap]
+11.5 +8.5 82 +11 +11 1012.3 1001.0
00 12.07 В 2 10 км слаб. ливневой дождь 10/10 600 м
[Cb cap]
+11.5 +8.6 82 +10 +10 1010.0 998.7 +11.2 0.3
03 12.07 Ю 2 10 км в посл. час дождь {ливн. осадки} 10/10 600 м
[Cb cap]
+10.5 +9.9 96 +9 +9 1008.8 997.5
06 12.07 Ю 2
{12}
20 км 8/8 600 м
[St]
+14.3 +13.7 96 +14 +16 1008.2 997.1
09 12.07 Ю 5-12
{12}
20 км 4/0 2000 м
[Ac lent]
+17.5 +14.6 83 +17 +20 1007.0 996.1
12 12.07 Ю 2
{12}
20 км {ливн. осадки} 4/4 600 м
[Sc]
+20.3 +14.9 71 +23 +25 комфорт 1008.4 997.5 +20.3 0.5
15 12.07 Ю 1 20 км 1/0
[Ci sp]
+19.5 +14.3 72 +22 +23 комфорт 1008.6 997.7
18 12.07 СЗ 1 20 км ливневой дождь, в посл. час гроза 10/10 600 м
[Sc]
+18.0 +11.4 65 +19 +19 1009.9 998.9
21 12.07 Ю 1 20 км {гроза, ливн. осадки} 3/3 600 м
[Sc]
+14.4 +10.9 79 +15 +15 1010.1 998.9
00 13.07 Ю 1 20 км {гроза} 6/6 600 м
[Sc]
+12.7 +10.2 85 +13 +14 1010.4 999.2 +12.7 0.4
03 13.07 ЮВ 1 20 км 10/10 600 м
[Cu Sc]
+17.9 +13.5 75 +19 +19 1010.1 999.1
06 13.07 З 3 20 км 9/4 600 м
[Cu Sc Ac trans Ci fib]
+19.2 +11.8 62 +20 +24 1009.2 998.2
09 13.07 СЗ 4
{11}
20 км 10/10 600 м
[Cb cap]
+16.8 +10.9 68 +16 +16 1010.7 999.6
12 13.07 СЗ 4
{12}
20 км 10/10 600 м
[Cb cap]
+12.7 +8.5 76 +11 +11 1012.7 1001.5 +21.4
15 13.07 СЗ 2 20 км 10/10 600 м
[Cb cap]
+11.1 +9.3 89 +10 +10 1014.1 1002.7
18 13.07 З 1 20 км 10/10 600 м
[Cb cap]
+10.3 +9.9 97 +10 +10 1014.9 1003.5
21 13.07 З 1 4000 м дымка 10/10 600 м
[Sc]
+9.5 +9.3 99 +9 +9 1015.6 1004.2
00 14.07 СВ 1 20 км 10/10 600 м
[Sc]
+11.2 +10.6 96 +11 +11 1016.8 1005.4 +9.5
03 14.07 штиль 0 20 км 4/3 600 м
[Cu hum Ci fib]
+15.2 +9.2 67 +15 +22 1017.9 1006.7
06 14.07 СЗ 1 20 км 4/4 600 м
[Cu Sc]
+17.3 +8.8 57 +18 +26 1018.0 1006.9
09 14.07 СЗ 1 20 км 3/3 600 м
[Cu Sc]
+20.1 +10.3 53 +23 +29 комфорт 1017.3 1006.3
12 14.07 штиль 0 20 км 8/3 600 м
[Sc Ac trans Ci sp]
+18.5 +10.3 59 +19 +21 1017.4 1006.3 +20.7
15 14.07 СЗ 1 20 км 8/3 600 м
[Sc Ci sp]
+16.3 +12.3 77 +17 +17 1017.3 1006.2
18 14.07 штиль 0 20 км 10/0
[Ci sp]
+13.2 +12.5 96 +13 +13 1017.6 1006.3
21 14.07 Ю 1 20 км 9/0
[Ac lent]
+12.1 +11.5 96 +12 +12 1017.6 1006.3
00 15.07 штиль 0 20 км 8/4 600 м
[Sc Ac trans]
+13.6 +13.2 97 +13 +14 1017.4 1006.2 +11.6
03 15.07 Ю 1 20 км 9/9 600 м
[Sc]
+14.8 +12.6 87 +15 +16 1017.2 1006.0
06 15.07 ЮВ 1 20 км 9/9 600 м
[Sc]
+15.5 +10.4 72 +16 +17 1016.0 1004.8
09 15.07 Ю 2 20 км 4/0
[Ac lent]
+18.9 +5.9 43 +20 +25 1015.6 1004.3
12 15.07 Ю 2 20 км ясно +24.9 +9.9 39 +26 +28 жарко 1014.4 1003.6 +24.9
15 15.07 ЮЗ 1 20 км 4/0
[Ci fib]
+22.5 +9.5 44 +24 +24 комфорт 1014.4 1003.6
18 15.07 ЮЗ 28 20 км ясно +19.4 +11.2 59 +18 +18 1015.1 1004.0
21 15.07 Ю 26 20 км 4/3 600 м
[Cu hum Ci fib]
+17.9 +11.9 68 +15 +15 1015.3 1004.2
00 16.07 Ю 2 20 км гроза без осадков 8/4 600 м
[Cb cap Ci sp]
+18.4 +12.5 68 +19 +21 1015.5 1004.4 +16.9
03 16.07 Ю 4 20 км {гроза} 6/3 600 м
[Cu med, cong Ci sp]
+20.5 +13.3 63 +23 +26 комфорт 1015.2 1004.2
06 16.07 Ю 3 20 км {дождь} 4/4 600 м
[Cu med, cong]
+26.5 +14.7 48 +29 +34 жарко 1014.5 1003.7

 

Местоположение метеостанции Снежногорск (Красноярский край, Россия): широта 68.10 долгота 87.77 высота над уровнем моря 94 м.

В архиве по умолчанию представлена погода в Снежногорске за последнюю неделю. Архивные данные за месяц целиком и за предыдущие месяцы, начиная с января 2011 года, Вы можете получить, выбрав интересующий диапазон дат из раскрывающегося списка и нажав кнопку "Ввод!".


*Определитесь, кто Вы:
робот инопланетянин человек

Внимание! Время в таблицах - всемирное. Для получения местного времени необходимо прибавить поправку, которая равна 7 ч.

Смотрите также архив погоды в соседних городах и на ближайших метеорологических станциях:

Погода в Горбиачине (Красноярский край, Россия) (69 км)
Погода в Игарке (Красноярский край, Россия) (86 км)
Погода в Потапово (Красноярский край, Россия) (89 км)
Погода в Светлогорске (Красноярский край, Россия) (131 км)
Погода в Норильске (Красноярский край, Россия) (138 км)
Погода в Курейке (Красноярский край, Россия) (183 км)
Погода в Советской Речке (Красноярский край, Россия) (221 км)
Погода в Туруханске (Красноярский край, Россия) (258 км)
Погода в Агате (Эвенкия, Россия) (278 км)
Погода в Карауле (Красноярский край, Россия) (286 км)

Пояснения к столбцам:

Ветер - указаны скорость ветра в м/с - средняя за 10 мин, порывы в срок и между сроками (в фигурных скобках) и направление, откуда дует ветер: С - северный, СВ - северо-восточный, В - восточный, ЮВ - юго-восточный, Ю - южный, ЮЗ - юго-западный, З - западный, СЗ - северо-западный.
Видимость - горизонтальная дальность видимости в метрах или километрах. При видимости от 1 до 10 км при отсутствии осадков обычно наблюдается дымка, при ухудшении видимости до 1 км и менее - туман. В сухую погоду видимость может ухудшаться дымом, пылью или мглою.
Явления - указаны атмосферные явления, наблюдавшиеся в срок или в последний час перед сроком; фигурными скобками обозначены явления, наблюдавшиеся между сроками (за 1-3 часа до срока); квадратными скобками обозначены град или гололедные отложения с указанием их диаметра в мм.
Облачность - указаны через наклонную черту общая и нижняя облачность в баллах и высота нижней границы облаков в метрах; квадратными скобками обозначены формы облаков: Ci - перистые, Cs - перисто-слоистые, Cc - перисто-кучевые, Ac - высококучевые, As - высокослоистые, Sc - слоисто-кучевые, Ns - слоисто-дождевые, Cu - кучевые, Cb - кучево-дождевые. Подробнее классификацию облаков см. в Атласе облаков (PDF).
T - Температура воздуха - температура, измеренная на высоте 2 м над землей.
Td - Температура точки росы - температура, при понижении до которой содержащийся в воздухе водяной пар достигнет насыщения.
f - Относительная влажность воздуха - влажноcть воздуха, измеренная на высоте 2 м над землей.
Te - Эффективная температура - температура, которую ощущает одетый по сезону человек в тени. Характеристика душности погоды. При расчете учитывается влияние влажности воздуха и скорости ветра на теплоощущения человека.
Tes - Эффективная температура на солнце - температура, которую ощущает человек, с поправкой на солнечный нагрев. Характеристика знойности погоды. Зависит от высоты солнца над горизонтом, облачности и скорости ветра. Ночью, в пасмурную погоду, а также при ветре 12 м/с и более поправка равна нулю.
P - Атмосферное давление - приведенное к уровню моря атмосферное давление.
Po - Атмосферное давление - измеренное на уровне метеостанции атмосферное давление.
Tmin - Минимальная температура - минимум температуры воздуха на высоте 2 м над землей.
Tmax - Максимальная температура - максимум температуры воздуха на высоте 2 м над землей.
R - Количество осадков - Количество выпавших осадков за период времени, мм. При наведении курсора мыши на число - период времени, за который выпало указанное количество осадков.
R24 - Количество осадков - Количество выпавших осадков за 24 часа, мм.
S - Снежный покров - Высота снежного покрова, см. При наведении курсора мыши на число - состояние снежного покрова и степень покрытия местности в баллах.